Time,TemperatureF,DewpointF,PressureIn,WindDirection,WindDirectionDegrees,WindSpeedMPH,WindSpeedGustMPH,Humidity,HourlyPrecipIn,Conditions,Clouds,dailyrainin,SoftwareType,DateUTC
2013-04-25 00:00:00,23.0,-99.9,-100.00,North,-999,-999.0,-999.0,-999,-99.99,,,-99.99,,2013-04-25 06:00:00,
2013-04-25 01:00:00,29.0,-99.9,-100.00,North,-999,-999.0,-999.0,-999,-99.99,,,-99.99,,2013-04-25 07:00:00,
2013-04-25 01:53:00,29.0,-99.9,-100.00,North,-999,-999.0,-999.0,-999,-99.99,,,-99.99,,2013-04-25 07:53:00,
2013-04-25 02:00:00,30.0,-99.9,-100.00,North,-999,-999.0,-999.0,-999,-99.99,,,-99.99,,2013-04-25 08:00:00,
2013-04-25 03:00:00,30.0,-99.9,-100.00,North,-999,-999.0,-999.0,-999,-99.99,,,-99.99,,2013-04-25 09:00:00,
2013-04-25 04:00:00,29.0,-99.9,-100.00,North,-999,-999.0,-999.0,-999,-99.99,,,-99.99,,2013-04-25 10:00:00,
2013-04-25 05:00:00,27.0,-99.9,-100.00,North,-999,-999.0,-999.0,-999,-99.99,,,-99.99,,2013-04-25 11:00:00,
2013-04-25 06:00:00,31.0,-99.9,-100.00,North,-999,-999.0,-999.0,-999,-99.99,,,-99.99,,2013-04-25 12:00:00,
2013-04-25 07:00:00,33.0,-99.9,-100.00,North,-999,-999.0,-999.0,-999,-99.99,,,-99.99,,2013-04-25 13:00:00,
2013-04-25 09:00:00,40.0,-99.9,-100.00,North,-999,-999.0,-999.0,-999,-99.99,,,-99.99,,2013-04-25 15:00:00,
2013-04-25 10:00:00,42.0,-99.9,-100.00,North,-999,-999.0,-999.0,-999,-99.99,,,-99.99,,2013-04-25 16:00:00,
2013-04-25 11:00:00,44.0,-99.9,-100.00,North,-999,-999.0,-999.0,-999,-99.99,,,0.03,,2013-04-25 17:00:00,
2013-04-25 12:00:00,46.0,-99.9,-100.00,North,-999,-999.0,-999.0,-999,-99.99,,,0.02,,2013-04-25 18:00:00,
2013-04-25 12:53:00,46.0,-99.9,-100.00,North,-999,-999.0,-999.0,-999,-99.99,,,0.02,,2013-04-25 18:53:00,
2013-04-25 13:00:00,47.0,-99.9,-100.00,North,-999,-999.0,-999.0,-999,-99.99,,,0.01,,2013-04-25 19:00:00,
2013-04-25 14:00:00,46.0,-99.9,-100.00,North,-999,-999.0,-999.0,-999,-99.99,,,0.00,,2013-04-25 20:00:00,
2013-04-25 15:00:00,49.0,-99.9,-100.00,North,-999,-999.0,-999.0,-999,-99.99,,,-99.99,,2013-04-25 21:00:00,
2013-04-25 15:53:00,49.0,-99.9,-100.00,North,-999,-999.0,-999.0,-999,-99.99,,,-99.99,,2013-04-25 21:53:00,
2013-04-25 16:00:00,47.0,-99.9,-100.00,North,-999,-999.0,-999.0,-999,-99.99,,,-99.99,,2013-04-25 22:00:00,
2013-04-25 16:42:00,47.0,-99.9,-100.00,North,-999,-999.0,-999.0,-999,-99.99,,,-99.99,,2013-04-25 22:42:00,
2013-04-25 16:53:00,47.0,-99.9,-100.00,North,-999,-999.0,-999.0,-999,-99.99,,,-99.99,,2013-04-25 22:53:00,
2013-04-25 17:00:00,46.0,-99.9,-100.00,North,-999,-999.0,-999.0,-999,-99.99,,,-99.99,,2013-04-25 23:00:00,
2013-04-25 22:00:00,33.0,-99.9,-100.00,North,-999,-999.0,-999.0,-999,-99.99,,,0.00,,2013-04-26 04:00:00,
2013-04-25 22:53:00,33.0,-99.9,-100.00,North,-999,-999.0,-999.0,-999,-99.99,,,0.00,,2013-04-26 04:53:00,
2013-04-25 23:00:00,30.0,-99.9,-100.00,North,-999,-999.0,-999.0,-999,-99.99,,,-99.99,,2013-04-26 05:00:00,
2013-04-25 23:52:00,30.0,-99.9,-100.00,North,-999,-999.0,-999.0,-999,-99.99,,,-99.99,,2013-04-26 05:52:00,